Wind_Speed
40 38 38 36 35 36 37 37 36 36 36 35 35 34 34 34 32 30 29 28 28 28 27 25 24 23 23 21 21 21 20 21 22 21 21 20 19 18 18 19 18 19
40 39 38 37 35 34 35 37 37 36 36 36 36 35 34 33 32 31 30 30 30 29 29 28 26 25 25 23 22 22 22 23 23 23 22 22 20 19 18 19 20 20
40 39 39 38 37 36 35 36 36 36 36 36 35 34 34 33 33 32 31 31 31 31 31 30 28 27 26 26 25 24 24 25 25 24 24 23 22 21 20 19 20 20
40 40 40 40 40 39 36 34 34 35 35 35 35 35 34 34 33 32 32 32 32 32 32 31 30 29 28 28 28 27 26 26 26 25 25 25 24 23 22 21 21 21
42 41 41 41 40 38 36 34 35 35 35 36 36 35 35 34 34 33 33 33 33 32 32 32 32 31 30 29 29 29 29 28 27 26 27 27 26 25 25 24 24 23
41 41 41 40 39 37 36 36 37 36 37 37 36 35 36 35 35 34 34 34 34 33 33 33 33 32 32 31 31 31 30 30 29 28 28 28 28 27 26 26 26 26
40 41 40 39 37 36 37 37 37 37 38 38 37 36 35 35 35 35 35 35 35 34 34 33 33 34 33 33 33 33 32 32 31 30 30 30 30 29 28 28 28 28
41 41 39 38 37 36 36 37 37 37 37 37 36 36 36 35 35 35 35 35 36 36 35 34 34 34 34 34 34 35 34 34 33 33 32 32 31 31 31 30 30 30
39 38 38 37 37 37 37 37 37 37 36 36 37 38 37 37 37 36 35 35 36 36 36 36 36 36 36 36 36 36 36 36 35 35 35 34 34 34 34 32 32 32
36 36 36 37 37 38 38 38 37 36 35 35 37 37 37 39 39 38 37 36 36 37 37 37 37 37 37 37 38 38 37 37 36 36 36 36 36 36 36 35 34 34
37 37 37 38 38 39 39 39 38 36 36 36 36 36 37 38 38 38 38 38 38 39 39 39 39 39 39 39 39 39 39 38 37 37 37 37 38 38 37 36 36 37
39 39 39 40 40 40 40 39 38 37 37 37 37 36 36 37 38 38 39 40 41 41 40 40 40 39 39 40 40 40 39 39 38 38 38 38 39 39 38 38 38 39
40 41 41 41 41 41 40 39 39 39 39 39 39 38 37 37 38 39 40 41 42 42 41 42 41 40 40 40 40 40 40 39 39 39 39 39 39 40 39 39 40 40
41 41 41 41 41 41 40 39 40 40 40 40 40 40 40 39 39 40 40 41 41 41 41 41 40 40 40 40 40 40 40 39 39 39 39 39 40 40 40 39 40 40
40 39 40 40 39 39 40 40 40 40 40 40 41 42 42 42 41 41 40 40 40 41 41 41 40 41 42 42 42 41 40 40 40 39 40 40 40 40 40 40 40 40
38 38 38 38 39 39 40 40 40 39 39 40 41 42 42 42 41 41 40 40 41 41 42 41 41 42 44 45 44 43 41 40 39 40 40 39 39 39 39 40 40 40
37 37 37 37 38 39 39 40 40 39 39 40 40 41 41 41 40 40 41 40 41 42 42 42 43 44 45 46 46 45 43 41 40 40 39 38 38 38 39 39 39 40
37 37 37 37 38 38 39 39 39 39 39 39 39 39 39 39 40 41 41 41 41 41 42 43 44 46 46 47 47 47 46 43 41 39 37 37 37 38 38 38 37 38
37 37 37 38 38 38 38 38 38 39 39 39 39 38 38 38 40 41 41 41 41 41 42 44 45 46 47 47 47 47 47 45 43 39 37 37 37 37 38 37 37 37
38 38 38 38 38 39 38 38 38 39 40 40 38 37 38 39 41 42 42 42 42 42 42 43 45 46 46 46 47 47 47 47 45 41 38 37 38 38 37 38 39 38
38 38 38 38 38 38 38 38 39 39 39 39 38 38 39 40 40 41 42 43 44 44 42 41 44 46 46 46 47 47 47 47 46 43 40 38 38 38 38 39 40 39
37 37 37 37 37 37 38 38 38 39 39 38 37 37 38 39 39 40 41 42 43 43 42 41 44 46 46 46 47 47 47 46 45 44 42 40 40 39 39 40 39 39
38 37 37 37 37 37 37 37 38 38 38 38 37 37 37 38 39 39 40 41 41 41 42 43 44 44 45 47 47 46 45 45 45 43 42 41 41 40 39 39 39 40
38 38 37 37 37 37 37 37 37 37 37 38 38 38 38 38 38 38 38 39 39 41 43 44 43 42 43 44 45 45 44 44 44 42 41 41 41 40 40 40 39 40
39 39 39 37 37 37 37 37 37 37 38 39 39 39 38 37 36 36 36 37 38 40 41 42 41 39 38 39 41 41 42 43 42 40 39 38 38 38 39 39 39 39
38 39 39 38 38 37 37 37 37 37 37 37 37 37 36 35 35 35 35 36 37 38 38 39 39 36 34 34 36 37 39 41 41 40 38 37 36 36 37 37 37 37
Wind_Direction
204 204 205 205 203 203 201 201 202 204 206 208 211 214 214 216 218 217 215 214 215 218 220 223 224 223 221 223 225 224 223 223 221 219 220 224 226 226 223 219 214 213
204 205 206 207 206 206 204 204 204 205 207 210 214 216 216 217 218 217 216 216 216 219 221 223 225 225 223 223 225 226 225 226 226 224 223 225 225 225 227 225 220 219
205 205 206 207 208 208 207 206 206 207 208 211 214 217 218 218 218 219 218 217 218 219 221 223 224 225 225 224 224 227 227 228 229 228 227 228 227 226 228 229 229 226
206 207 207 209 210 210 210 208 208 208 209 211 214 217 218 219 219 219 219 219 219 219 220 222 223 224 225 223 224 226 229 230 231 230 229 230 230 231 230 231 233 231
207 208 208 209 210 211 211 210 210 209 209 212 214 216 217 218 219 219 219 218 219 220 221 222 223 224 224 222 222 225 228 231 232 231 230 230 230 232 233 233 232 232
207 208 210 210 210 210 210 211 212 211 211 212 213 215 216 217 219 219 218 218 218 220 221 222 222 223 224 223 222 225 228 229 231 231 231 231 231 232 233 234 234 234
207 209 210 211 211 211 211 212 213 212 213 213 212 213 214 216 217 219 219 218 217 219 221 223 224 223 223 223 223 225 227 228 230 230 231 232 232 232 233 233 234 235
207 208 210 211 211 212 213 213 213 213 214 213 212 213 213 214 216 217 218 218 218 219 221 224 225 225 224 222 223 224 225 226 227 228 229 231 231 232 233 233 234 235
207 208 209 210 211 213 214 214 214 214 214 213 213 214 214 215 216 216 217 217 218 220 222 224 225 225 225 223 223 224 224 224 225 226 227 228 229 231 232 232 232 233
206 207 208 209 211 213 215 216 216 215 215 214 215 215 215 216 217 217 217 218 219 221 222 224 224 224 224 224 224 225 225 225 225 226 227 227 229 231 231 231 230 232
206 207 208 210 211 213 215 216 216 216 216 216 215 215 215 216 217 218 218 219 220 222 223 224 224 224 223 223 225 225 226 226 226 226 228 229 230 230 231 231 231 232
205 206 208 210 211 213 215 216 216 216 216 216 216 215 216 216 217 217 218 220 221 223 223 224 225 224 224 224 225 225 226 227 227 228 229 230 231 232 232 232 232 234
205 207 208 210 212 213 215 215 216 216 216 217 217 216 217 217 217 217 218 220 222 222 223 225 225 224 225 225 225 225 225 226 227 228 229 231 232 233 233 233 233 235
207 208 209 211 212 213 214 215 215 216 216 217 217 217 218 218 217 218 219 220 222 223 224 225 225 224 225 226 226 226 225 226 226 227 228 230 233 234 234 234 235 236
208 209 210 211 212 213 214 215 215 216 216 216 217 217 218 219 219 220 220 220 222 224 225 226 225 225 226 226 226 226 225 226 227 227 228 229 231 233 235 235 236 236
208 209 210 211 212 213 214 215 215 216 216 216 217 218 219 219 220 220 221 221 222 223 225 225 226 227 228 228 228 227 226 227 228 229 229 229 231 233 234 236 237 237
208 209 210 211 212 213 214 215 215 216 217 217 218 219 219 219 220 220 221 222 222 223 224 225 226 227 229 230 230 229 228 227 228 230 230 230 231 232 234 236 237 238
208 209 210 212 213 214 215 215 216 216 217 218 218 219 219 219 220 221 222 222 223 224 225 226 228 229 229 230 231 231 230 229 229 230 231 232 233 234 236 238 239 240
208 209 210 212 213 214 214 215 215 216 217 218 219 219 218 219 220 221 222 222 223 224 225 226 229 230 231 231 232 232 232 231 231 231 232 233 234 236 237 239 240 241
208 209 210 211 212 213 213 213 214 215 217 218 219 218 218 219 220 221 222 223 223 225 226 227 230 232 232 232 233 234 234 233 232 232 233 235 236 237 238 240 242 242
207 208 210 211 212 212 212 212 214 215 216 217 218 218 219 220 221 222 223 223 224 226 226 228 230 233 233 233 234 235 235 234 233 233 234 236 238 239 240 241 243 244
206 207 208 210 210 210 211 211 213 214 215 216 216 218 220 221 222 223 224 224 225 226 227 229 232 233 234 234 236 236 235 234 233 233 234 236 239 240 241 243 244 245
206 206 207 208 209 209 210 211 212 214 214 214 215 217 219 221 222 223 224 226 226 226 227 230 233 234 234 235 236 236 235 233 232 232 234 236 239 241 243 244 245 246
206 206 207 207 208 208 209 211 212 213 214 214 215 217 219 220 222 224 225 227 227 227 228 231 233 234 235 236 237 236 235 233 232 232 234 237 239 242 244 245 247 248
206 206 207 207 207 209 210 210 211 212 213 215 216 217 219 221 222 224 225 227 228 229 230 231 234 236 236 237 238 237 236 235 233 232 234 236 239 242 245 246 248 249
206 206 207 207 208 209 210 211 212 212 213 214 216 218 220 221 221 223 225 227 229 231 232 233 234 236 237 238 239 238 238 237 234 232 234 237 239 242 245 247 249 250
Height
794 797 799 800 802 803 804 806 808 811 813 815 816 818 820 822 824 826 828 829 831 833 834 836 837 838 839 840 841 842 842 843 844 845 846 846 847 847 848 849 849 849
792 794 797 799 800 802 803 804 806 808 810 812 814 816 818 821 823 824 826 828 829 831 833 834 835 836 838 838 839 840 841 842 843 844 844 845 846 846 847 847 848 849
789 791 794 796 797 799 801 803 805 806 808 810 812 815 817 819 821 822 824 826 827 829 831 832 833 835 836 837 838 839 839 840 841 842 843 844 845 845 846 846 847 848
786 788 790 792 794 797 799 801 803 805 807 809 810 812 814 816 818 820 822 824 825 827 828 830 831 833 834 835 836 837 838 838 839 841 842 842 843 844 844 845 846 846
782 785 787 790 792 795 797 799 801 802 804 806 807 810 811 814 816 817 819 821 823 825 826 828 829 830 832 833 834 835 836 836 838 839 840 840 841 842 843 844 844 844
779 782 785 787 790 792 795 796 798 800 801 803 805 807 809 811 813 814 816 818 820 822 823 825 826 828 829 830 832 832 833 834 835 836 837 838 839 840 840 841 841 842
776 779 782 785 788 790 792 793 795 797 799 801 803 805 806 808 810 812 813 815 817 819 820 822 823 825 826 828 829 830 830 832 833 834 835 835 836 837 837 838 839 839
772 776 779 783 785 788 789 791 793 795 797 799 801 802 804 805 807 809 811 813 814 816 818 819 820 822 824 825 826 827 828 829 829 830 831 832 833 834 834 835 836 836
770 773 777 780 782 785 786 788 790 792 795 797 798 800 801 803 804 806 808 810 811 813 814 816 817 819 820 822 822 823 824 825 826 827 828 828 829 829 830 832 833 833
768 771 774 777 779 781 783 785 788 790 792 794 795 797 799 800 802 803 806 807 808 810 811 812 814 815 817 818 819 820 821 822 823 824 824 825 825 826 827 828 829 829
764 767 770 772 775 777 779 782 785 787 790 791 793 795 796 797 799 801 802 804 805 806 807 808 809 811 813 814 815 816 817 818 820 821 821 821 822 822 823 824 825 824
759 762 765 767 770 773 776 779 782 784 786 788 790 792 793 794 796 797 799 800 800 802 803 804 805 807 809 810 811 813 814 815 816 817 818 818 818 819 820 820 821 820
754 756 759 762 765 768 772 775 778 780 782 784 786 788 790 791 792 794 795 796 797 798 799 800 802 804 805 806 808 809 810 812 813 814 814 815 815 815 816 817 817 817
749 752 755 758 762 765 768 771 774 776 778 780 782 784 785 787 788 789 791 792 794 795 796 797 799 801 802 803 804 805 806 807 808 810 810 811 811 812 812 813 813 814
746 749 752 755 759 761 764 767 769 772 774 776 778 779 780 782 784 786 788 789 791 792 793 794 796 796 797 798 799 801 802 803 804 805 806 807 808 808 809 809 810 811
743 746 749 752 755 757 760 763 766 769 771 772 774 775 777 779 781 783 784 785 787 788 789 790 791 792 792 793 795 796 798 799 801 801 802 803 804 805 805 806 806 807
739 742 745 748 751 754 757 759 762 765 767 769 770 772 774 776 778 779 780 782 783 784 785 785 786 786 787 788 790 792 794 796 796 797 799 800 801 801 801 802 803 804
735 738 741 744 747 750 753 756 759 762 763 765 766 768 771 773 774 775 776 778 779 780 780 780 781 781 782 784 786 788 790 792 793 794 796 796 797 798 798 799 800 801
731 734 737 740 742 746 749 752 755 757 759 761 763 765 768 769 770 771 772 774 775 775 776 776 776 777 778 780 782 784 786 788 789 791 792 793 794 794 795 796 796 797
727 729 732 735 738 742 745 748 750 752 754 757 759 762 764 764 765 766 767 769 770 770 771 772 772 773 774 777 779 780 782 784 786 788 789 790 790 791 792 792 792 793
722 725 729 731 734 738 740 742 745 747 749 752 755 757 758 759 761 762 763 764 765 766 767 768 768 769 771 773 774 776 778 781 783 784 786 787 787 787 788 788 788 789
718 722 724 727 730 733 735 738 740 742 745 748 751 753 754 755 757 758 759 760 761 763 764 764 764 765 767 769 770 772 775 777 779 781 782 782 782 783 784 784 785 786
714 717 720 723 726 728 730 733 735 738 741 744 746 748 749 751 752 753 755 756 758 760 760 759 759 761 763 764 766 769 772 774 776 777 778 778 778 779 780 780 781 782
710 713 716 718 721 723 726 728 731 734 736 739 741 742 743 745 747 749 751 753 754 755 755 755 756 758 760 762 763 766 769 770 772 773 774 774 774 775 776 776 777 777
705 708 711 714 716 719 721 724 727 729 732 734 736 737 739 742 744 746 747 748 750 751 752 753 754 756 759 760 761 764 766 767 769 770 770 770 771 772 772 772 773 774
701 704 706 709 712 714 717 720 723 725 728 730 731 733 736 738 740 741 743 744 746 747 748 750 752 754 756 758 759 761 763 765 766 766 765 767 768 768 768 768 769 770